FW2265 Weather Reports


Display with metric or nautical units.
time (UTC)temp
F
wind
direction
speed
MPH
gust
MPH
rain 1hr
in
rain 24hr
in
rain mn
in
humidity
%
barometer
mb
20260502170444 71 64 0.0 2.0 0.00 2.24 0.01 51 1021.0
20260502164343 69 58 1.0 4.0 0.00 2.86 0.01 52 1021.1
20260502163343 69 77 1.0 5.0 0.00 2.86 0.01 56 1021.1
20260502162343 69 44 0.0 2.0 0.00 2.86 0.01 60 1021.2
20260502160343 67 75 0.0 0.0 0.00 2.88 0.01 64 1021.0
20260502151443 64 42 0.0 1.0 0.00 2.93 0.01 71 1021.0
20260502150441 63 90 0.0 2.0 0.00 2.94 0.01 72 1021.0
20260502122942 55 41 1.0 4.0 0.00 3.02 0.01 91 1019.1
20260502121944 54 35 0.0 2.0 0.00 3.04 0.01 91 1019.0
20260502114043 54 53 0.0 2.0 0.00 3.04 0.01 92 1018.6
20260502113042 54 63 0.0 1.0 0.00 3.04 0.01 91 1018.5
20260502112942 54 35 0.0 1.0 0.00 3.04 0.01 91 1018.5
20260502112042 54 39 0.0 0.0 0.00 3.04 0.01 91 1018.6
20260502110141 54 122 0.0 1.0 0.00 3.04 0.01 90 1018.4
20260502105241 54 90 0.0 0.0 0.00 3.04 0.01 88 1018.2
20260502104243 54 95 0.0 0.0 0.00 3.04 0.01 87 1017.8
20260502103241 54 343 0.0 1.0 0.00 3.05 0.01 86 1017.6
20260502102340 54 313 0.0 0.0 0.00 3.05 0.01 86 1017.6
20260502101344 54 44 0.0 1.0 0.00 3.05 0.01 86 1017.4
20260502090641 55 130 0.0 2.0 0.00 3.05 0.01 87 1016.5
20260502065944 57 76 0.0 2.0 0.00 3.05 0.01 92 1016.4
20260502065842 57 68 0.0 3.0 0.00 3.05 0.01 92 1016.4
20260502064843 57 115 0.0 0.0 0.01 3.05 0.01 93 1016.2
20260502063844 57 79 0.0 2.0 0.01 3.05 0.01 93 1016.3
20260502062843 56 117 0.0 2.0 0.01 3.05 0.01 94 1016.1
20260502060844 56 30 0.0 2.0 0.01 3.21 0.01 93 1016.0
20260502055843 56 68 0.0 5.0 0.01 3.29 0.01 94 1016.2
20260502054841 56 48 1.0 4.0 0.00 3.33 0.00 94 1016.2
20260502053842 56 71 1.0 3.0 0.00 3.66 0.00 95 1016.4
20260502052842 56 64 0.0 2.0 0.00 3.97 0.00 95 1016.5
20260502051843 56 59 1.0 5.0 0.00 3.98 0.00 94 1016.4
20260502050841 56 55 0.0 1.0 0.00 3.98 0.00 95 1016.4
20260502045929 56 45 0.0 0.0 0.00 3.98 3.98 96 1016.4
20260502043931 56 54 1.0 4.0 0.02 3.98 3.98 96 1016.5
20260502042930 56 62 0.0 3.0 0.02 3.98 3.98 95 1016.4
20260502040930 56 81 1.0 7.0 0.02 3.98 3.98 95 1016.3
20260502035931 56 117 0.0 2.0 0.03 3.98 3.98 95 1016.0
20260502034930 56 105 0.0 3.0 0.02 3.96 3.96 96 1015.5
20260502033928 57 328 0.0 0.0 0.02 3.96 3.96 95 1015.8
20260502032930 57 166 1.0 7.0 0.03 3.96 3.96 97 1015.1
20260502031932 57 36 0.0 4.0 0.04 3.96 3.96 97 1014.8
20260502030931 57 72 0.0 0.0 0.04 3.96 3.96 97 1014.0
20260502025930 57 62 0.0 3.0 0.04 3.95 3.95 96 1014.0
20260502023929 58 117 0.0 1.0 0.04 3.94 3.93 96 1014.6
20260502022930 58 110 0.0 2.0 0.05 3.93 3.93 96 1014.4
20260502021929 58 200 0.0 2.0 0.06 3.92 3.92 96 1014.6
20260502020930 58 41 1.0 3.0 0.06 3.92 3.92 97 1014.4
20260502012929 59 126 0.0 0.0 0.12 3.92 3.88 98 1013.3
20260502012028 59 107 0.0 2.0 0.20 3.91 3.86 98 1013.2
20260502011029 59 118 0.0 3.0 0.27 3.91 3.86 98 1012.6
20260502005030 59 35 1.0 2.0 0.33 3.99 3.84 98 1011.5
20260502004028 59 107 0.0 0.0 0.31 4.02 3.82 97 1011.9
20260502003029 59 55 0.0 3.0 0.27 4.07 3.76 97 1012.4
20260502002030 59 142 0.0 0.0 0.19 3.97 3.66 97 1012.2
20260502001129 59 38 0.0 2.0 0.12 3.90 3.59 97 1011.6
20260502000129 59 24 1.0 3.0 0.06 3.82 3.52 97 1011.5
20260501235131 59 88 0.0 3.0 0.06 3.82 3.52 97 1011.5
20260501234130 60 64 1.0 4.0 0.05 3.81 3.51 97 1011.7
20260501233228 60 44 1.0 4.0 0.04 3.80 3.50 97 1011.1
20260501232229 60 52 2.0 7.0 0.02 3.78 3.48 96 1010.6
20260501231229 60 75 1.0 8.0 0.02 3.78 3.48 97 1010.6
20260501230231 61 60 0.0 3.0 0.01 3.76 3.46 97 1011.1
20260501225231 61 43 2.0 6.0 0.02 3.76 3.46 97 1011.4
20260501224229 61 37 1.0 4.0 0.03 3.76 3.46 97 1011.3
20260501223229 61 77 1.0 4.0 0.07 3.76 3.46 96 1010.9
20260501222228 61 68 0.0 4.0 0.10 3.76 3.46 97 1010.9
20260501220231 61 37 1.0 4.0 0.21 3.75 3.44 98 1011.8
20260501213330 61 42 1.0 3.0 0.44 3.70 3.39 97 1010.2
20260501212330 61 31 0.0 2.0 0.42 3.66 3.36 97 1010.9
20260501210329 62 50 1.0 3.0 0.80 3.56 3.24 98 1010.9
20260501205428 62 95 0.0 2.0 0.74 3.44 3.13 97 1011.1
20260501204430 62 39 1.0 4.0 0.91 3.33 3.00 96 1010.3
20260501204331 62 33 3.0 8.0 0.93 3.30 2.99 97 1010.2
20260501203329 62 78 0.0 3.0 1.08 3.26 2.96 97 1010.1
20260501202330 62 64 2.0 5.0 1.06 3.24 2.93 98 1009.6
20260501201329 62 65 0.0 4.0 0.78 2.94 2.60 98 1010.1
20260501200330 62 9 0.0 2.0 0.63 2.76 2.45 98 1010.1
20260501200228 62 64 0.0 1.0 0.62 2.75 2.45 98 1010.3
20260501195229 62 45 0.0 2.0 0.54 2.67 2.35 97 1010.0
20260501195130 62 135 0.0 0.0 0.52 2.65 2.31 97 1009.9
20260501194129 62 68 0.0 2.0 0.18 2.30 1.98 97 1009.5
20260501193129 62 327 1.0 3.0 0.07 2.18 1.88 96 1009.5
20260501192130 63 55 1.0 7.0 0.06 2.17 1.87 96 1008.9
20260501191129 63 46 2.0 10.0 0.03 2.14 1.84 97 1010.5
20260501190130 63 225 0.0 0.0 0.02 2.13 1.83 96 1011.2
20260501185131 63 52 1.0 4.0 0.02 2.13 1.83 96 1009.6
20260501184229 63 247 0.0 2.0 0.01 2.12 1.82 97 1011.1
20260501183230 63 245 2.0 3.0 0.00 2.11 1.81 97 1009.7
20260501182230 63 49 2.0 4.0 0.00 2.11 1.81 97 1010.4
20260501181231 63 87 0.0 0.0 0.01 2.11 1.81 97 1010.7
20260501180229 63 34 2.0 4.0 0.10 2.11 1.81 97 1010.5
20260501174228 63 70 1.0 4.0 0.68 2.11 1.81 98 1010.8
20260501173229 63 205 0.0 0.0 0.68 2.11 1.81 98 1011.6